Location: Newark
(45.2500°N, 7.5833°E)
Time: 05:10:20
(UTC+00:00)

S-56A Canister/Altair - Visible Passes

Search period start: 25 January 2020 00:00
Search period end: 04 February 2020 00:00
Orbit: 634 x 2498 km, 38.9° (Epoch: 24 January)

Date Brightness Start Highest point End Pass type
(mag) Time Alt. Az. Time Alt. Az. Time Alt. Az.
25 Jan 9.3 18:40:30 10° SSW 18:45:43 21° SSE 18:45:59 21° SSE visible
26 Jan 9.4 18:07:36 10° SSW 18:13:04 21° SSE 18:15:15 17° SE visible
26 Jan 10.0 20:10:42 10° WSW 20:12:42 18° SW 20:12:42 18° SW visible
27 Jan 9.7 17:34:41 10° SSW 17:40:22 20° SSE 17:44:29 11° ESE visible
27 Jan 9.3 19:37:38 10° SW 19:41:56 30° SSW 19:41:56 30° SSW visible
28 Jan 9.9 17:01:45 10° SSW 17:07:37 19° SSE 17:12:15 10° ESE visible
28 Jan 8.7 19:04:30 10° SW 19:11:09 37° S 19:11:09 37° S visible
29 Jan 8.8 18:31:19 10° SW 18:38:40 37° SSE 18:40:21 32° SE visible
29 Jan 10.2 20:36:05 10° WSW 20:37:47 17° WSW 20:37:47 17° WSW visible
30 Jan 9.2 17:58:04 10° SW 18:05:58 36° SSE 18:09:32 21° ESE visible
30 Jan 9.4 20:02:56 10° WSW 20:06:58 30° SW 20:06:58 30° SW visible
31 Jan 9.4 17:24:47 10° SW 17:33:12 36° SSE 17:38:42 12° E visible
31 Jan 8.6 19:29:41 10° WSW 19:36:09 45° SSW 19:36:09 45° SSW visible
01 Feb 8.4 18:56:22 10° WSW 19:04:19 49° S 19:05:18 46° SSE visible
01 Feb 10.5 21:01:52 10° W 21:02:44 13° W 21:02:44 13° W visible
02 Feb 8.8 18:22:57 10° WSW 18:31:36 50° S 18:34:28 31° ESE visible
02 Feb 9.8 20:28:39 10° W 20:31:54 24° WSW 20:31:54 24° WSW visible
03 Feb 9.0 17:49:30 10° WSW 17:58:50 50° S 18:03:37 18° ESE visible
03 Feb 9.0 19:55:20 10° W 20:01:03 39° SW 20:01:03 39° SW visible
